YAMAL 202

Last updated on Mon Oct 20 2025 00:02:45 GMT+0000 (Coordinated Universal Time)

1 28089U 03053A 25292.27947708 -.00000077 00000+0 00000+0 0 9995 2 28089 5.7323 73.8559 0006332 150.0635 68.2469 1.00272690 80280
UTC large
Height (km)
Speed (km/s)
/
Latitude / Longitude
Inclination (degrees)
Orbital Period (minutes)
Azimuth
Elevation
Range (km)
Doppler Factor

Next 0 passes for location: London (51.5072 / 0.1276)

Sorry there are no passes over London.